| time (UTC) | temp F | wind direction | speed MPH | gust MPH | rain 1hr in | rain 24hr in | rain mn in | humidity % | barometer mb |
| 20260905171126 | 70 | 228 | 0.0 | 1.0 | 0.00 | 0.00 | 0.00 | 60 | 1023.5 |
| 20260905170121 | 72 | 228 | 0.0 | 2.0 | 0.00 | 0.00 | 0.00 | 57 | 1023.4 |
| 20260905165134 | 74 | 228 | 0.0 | 2.0 | 0.00 | 0.00 | 0.00 | 55 | 1023.5 |
| 20260905164140 | 74 | 228 | 0.0 | 2.0 | 0.00 | 0.00 | 0.00 | 55 | 1023.5 |
| 20260905163117 | 74 | 230 | 0.0 | 3.0 | 0.00 | 0.00 | 0.00 | 55 | 1023.4 |
| 20260905162146 | 74 | 230 | 0.0 | 1.0 | 0.00 | 0.00 | 0.00 | 55 | 1023.4 |
| 20260905161117 | 74 | 230 | 0.0 | 2.0 | 0.00 | 0.00 | 0.00 | 55 | 1023.5 |
| 20260905160121 | 73 | 230 | 0.0 | 1.0 | 0.00 | 0.00 | 0.00 | 55 | 1023.5 |
| 20260905155118 | 73 | 230 | 0.0 | 1.0 | 0.00 | 0.00 | 0.00 | 55 | 1023.5 |
| 20260905154124 | 73 | 230 | 0.0 | 2.0 | 0.00 | 0.00 | 0.00 | 56 | 1023.6 |
| 20260905153117 | 73 | 230 | 0.0 | 3.0 | 0.00 | 0.00 | 0.00 | 56 | 1023.7 |
| 20260905152150 | 74 | 230 | 0.0 | 2.0 | 0.00 | 0.00 | 0.00 | 54 | 1023.8 |
| 20260905151115 | 74 | 230 | 0.0 | 2.0 | 0.00 | 0.00 | 0.00 | 56 | 1023.9 |
| 20260905150128 | 73 | 230 | 0.0 | 2.0 | 0.00 | 0.00 | 0.00 | 55 | 1024.0 |
| 20260905145138 | 73 | 231 | 1.0 | 2.0 | 0.00 | 0.00 | 0.00 | 55 | 1024.1 |
| 20260905144121 | 74 | 230 | 0.0 | 2.0 | 0.00 | 0.00 | 0.00 | 55 | 1024.0 |
| 20260905143113 | 74 | 230 | 0.0 | 2.0 | 0.00 | 0.00 | 0.00 | 54 | 1024.0 |
| 20260905142125 | 74 | 230 | 0.0 | 1.0 | 0.00 | 0.00 | 0.00 | 55 | 1024.0 |
| 20260905141130 | 74 | 231 | 0.0 | 1.0 | 0.00 | 0.00 | 0.00 | 54 | 1024.1 |
| 20260905140124 | 74 | 231 | 0.0 | 2.0 | 0.00 | 0.00 | 0.00 | 55 | 1024.3 |
| 20260905135138 | 74 | 226 | 0.0 | 3.0 | 0.00 | 0.00 | 0.00 | 54 | 1024.5 |
| 20260905133119 | 76 | 226 | 0.0 | 3.0 | 0.00 | 0.00 | 0.00 | 49 | 1024.6 |
| 20260905132132 | 76 | 226 | 0.0 | 1.0 | 0.00 | 0.00 | 0.00 | 47 | 1024.6 |
| 20260905131125 | 75 | 226 | 0.0 | 3.0 | 0.00 | 0.00 | 0.00 | 47 | 1024.4 |
| 20260905130132 | 75 | 226 | 0.0 | 1.0 | 0.00 | 0.00 | 0.00 | 50 | 1024.3 |
| 20260905125145 | 74 | 226 | 0.0 | 3.0 | 0.00 | 0.00 | 0.00 | 48 | 1024.3 |
| 20260905124136 | 73 | 226 | 0.0 | 1.0 | 0.00 | 0.00 | 0.00 | 51 | 1024.3 |
| 20260905123120 | 73 | 226 | 0.0 | 4.0 | 0.00 | 0.00 | 0.00 | 49 | 1024.3 |
| 20260905122113 | 72 | 226 | 0.0 | 3.0 | 0.00 | 0.00 | 0.00 | 52 | 1024.4 |
| 20260905121120 | 72 | 226 | 0.0 | 4.0 | 0.00 | 0.00 | 0.00 | 52 | 1024.4 |
| 20260905120132 | 72 | 226 | 1.0 | 3.0 | 0.00 | 0.00 | 0.00 | 52 | 1024.4 |
| 20260905115119 | 71 | 226 | 0.0 | 1.0 | 0.00 | 0.00 | 0.00 | 52 | 1024.3 |
| 20260905114200 | 72 | 226 | 0.0 | 4.0 | 0.00 | 0.00 | 0.00 | 51 | 1024.4 |
| 20260905113123 | 72 | 226 | 0.0 | 1.0 | 0.00 | 0.00 | 0.00 | 54 | 1024.5 |
| 20260905112136 | 71 | 226 | 1.0 | 2.0 | 0.00 | 0.00 | 0.00 | 52 | 1024.6 |
| 20260905111122 | 70 | 226 | 0.0 | 4.0 | 0.00 | 0.00 | 0.00 | 54 | 1024.5 |
| 20260905110136 | 70 | 226 | 0.0 | 3.0 | 0.00 | 0.00 | 0.00 | 54 | 1024.6 |
| 20260905105123 | 70 | 226 | 0.0 | 2.0 | 0.00 | 0.00 | 0.00 | 54 | 1024.4 |
| 20260905104113 | 70 | 226 | 0.0 | 2.0 | 0.00 | 0.00 | 0.00 | 54 | 1024.4 |
| 20260905103119 | 69 | 226 | 0.0 | 3.0 | 0.00 | 0.00 | 0.00 | 55 | 1024.5 |
| 20260905102111 | 68 | 226 | 0.0 | 1.0 | 0.00 | 0.00 | 0.00 | 57 | 1024.5 |
| 20260905101125 | 67 | 226 | 0.0 | 2.0 | 0.00 | 0.00 | 0.00 | 59 | 1024.6 |
| 20260905100138 | 67 | 226 | 0.0 | 1.0 | 0.00 | 0.00 | 0.00 | 58 | 1024.6 |
| 20260905095150 | 67 | 226 | 0.0 | 3.0 | 0.00 | 0.00 | 0.00 | 58 | 1024.6 |
| 20260905094114 | 65 | 226 | 0.0 | 1.0 | 0.00 | 0.00 | 0.00 | 64 | 1024.6 |
| 20260905093126 | 65 | 226 | 1.0 | 3.0 | 0.00 | 0.00 | 0.00 | 62 | 1024.7 |
| 20260905092139 | 65 | 226 | 0.0 | 1.0 | 0.00 | 0.00 | 0.00 | 64 | 1024.6 |
| 20260905091131 | 64 | 226 | 0.0 | 1.0 | 0.00 | 0.00 | 0.00 | 64 | 1024.3 |
| 20260905090117 | 64 | 226 | 0.0 | 1.0 | 0.00 | 0.00 | 0.00 | 64 | 1024.3 |
| 20260905085130 | 65 | 226 | 0.0 | 4.0 | 0.00 | 0.00 | 0.00 | 63 | 1024.2 |
| 20260905084117 | 67 | 226 | 0.0 | 1.0 | 0.00 | 0.00 | 0.00 | 65 | 1024.2 |
| 20260905083148 | 65 | 226 | 0.0 | 1.0 | 0.00 | 0.00 | 0.00 | 68 | 1024.1 |
| 20260905082120 | 64 | 226 | 0.0 | 1.0 | 0.00 | 0.00 | 0.00 | 71 | 1024.0 |
| 20260905081125 | 62 | 226 | 0.0 | 2.0 | 0.00 | 0.00 | 0.00 | 76 | 1023.8 |
| 20260905080119 | 61 | 226 | 0.0 | 1.0 | 0.00 | 0.00 | 0.00 | 83 | 1023.7 |
| 20260905075132 | 59 | 226 | 0.0 | 0.0 | 0.00 | 0.00 | 0.00 | 88 | 1023.7 |
| 20260905074117 | 58 | 226 | 0.0 | 0.0 | 0.00 | 0.00 | 0.00 | 90 | 1023.6 |
| 20260905073130 | 57 | 226 | 0.0 | 0.0 | 0.00 | 0.00 | 0.00 | 92 | 1023.6 |
| 20260905072118 | 56 | 226 | 0.0 | 0.0 | 0.00 | 0.00 | 0.00 | 94 | 1023.4 |
| 20260905071132 | 55 | 226 | 0.0 | 0.0 | 0.00 | 0.00 | 0.00 | 94 | 1023.3 |
| 20260905070118 | 55 | 226 | 0.0 | 0.0 | 0.00 | 0.00 | 0.00 | 94 | 1023.3 |
| 20260905065131 | 54 | 226 | 0.0 | 0.0 | 0.00 | 0.00 | 0.00 | 94 | 1023.3 |
| 20260905064116 | 54 | 226 | 0.0 | 0.0 | 0.00 | 0.00 | 0.00 | 94 | 1023.0 |
| 20260905063113 | 54 | 226 | 0.0 | 0.0 | 0.00 | 0.00 | 0.00 | 93 | 1023.0 |
| 20260905062140 | 54 | 226 | 0.0 | 0.0 | 0.00 | 0.00 | 0.00 | 94 | 1022.9 |
| 20260905061138 | 54 | 226 | 0.0 | 0.0 | 0.00 | 0.12 | 0.00 | 94 | 1022.9 |
| 20260905060129 | 54 | 226 | 0.0 | 0.0 | 0.00 | 0.12 | 0.00 | 94 | 1022.9 |
| 20260905055116 | 54 | 226 | 0.0 | 0.0 | 0.00 | 0.12 | 0.00 | 94 | 1022.8 |
| 20260905054112 | 54 | 226 | 0.0 | 0.0 | 0.00 | 0.12 | 0.00 | 94 | 1022.7 |
| 20260905053120 | 54 | 226 | 0.0 | 0.0 | 0.00 | 0.12 | 0.00 | 94 | 1022.6 |
| 20260905052126 | 54 | 226 | 0.0 | 0.0 | 0.00 | 0.12 | 0.00 | 94 | 1022.6 |
| 20260905051138 | 54 | 226 | 0.0 | 0.0 | 0.00 | 0.12 | 0.00 | 94 | 1022.6 |
| 20260905050150 | 54 | 226 | 0.0 | 0.0 | 0.00 | 0.12 | 0.00 | 94 | 1022.5 |
| 20260905045121 | 54 | 226 | 0.0 | 0.0 | 0.00 | 0.12 | 0.00 | 94 | 1022.3 |
| 20260905044111 | 53 | 226 | 0.0 | 0.0 | 0.00 | 0.12 | 0.00 | 95 | 1022.4 |
| 20260905043124 | 53 | 226 | 0.0 | 0.0 | 0.00 | 0.12 | 0.00 | 94 | 1022.2 |
| 20260905042136 | 52 | 226 | 0.0 | 0.0 | 0.00 | 0.12 | 0.00 | 95 | 1022.3 |
| 20260905041120 | 52 | 226 | 0.0 | 1.0 | 0.00 | 0.12 | 0.00 | 95 | 1022.2 |
| 20260905040133 | 51 | 226 | 0.0 | 0.0 | 0.00 | 0.12 | 0.00 | 94 | 1022.1 |
| 20260905035124 | 51 | 226 | 0.0 | 0.0 | 0.00 | 0.12 | 0.00 | 93 | 1022.0 |
| 20260905034138 | 51 | 226 | 0.0 | 0.0 | 0.00 | 0.12 | 0.00 | 93 | 1021.8 |
| 20260905033123 | 52 | 226 | 0.0 | 0.0 | 0.00 | 0.12 | 0.00 | 93 | 1021.8 |
| 20260905032137 | 52 | 226 | 0.0 | 0.0 | 0.00 | 0.12 | 0.00 | 94 | 1021.6 |
| 20260905031143 | 52 | 226 | 0.0 | 0.0 | 0.00 | 0.12 | 0.00 | 94 | 1021.5 |
| 20260905030134 | 51 | 226 | 0.0 | 0.0 | 0.00 | 0.12 | 0.00 | 94 | 1021.6 |
| 20260905025126 | 50 | 226 | 0.0 | 0.0 | 0.00 | 0.12 | 0.00 | 94 | 1021.5 |
| 20260905024113 | 50 | 226 | 0.0 | 0.0 | 0.00 | 0.12 | 0.00 | 93 | 1021.4 |
| 20260905023126 | 50 | 226 | 0.0 | 0.0 | 0.00 | 0.12 | 0.00 | 92 | 1021.3 |
| 20260905022111 | 50 | 226 | 0.0 | 0.0 | 0.00 | 0.12 | 0.00 | 92 | 1021.2 |
| 20260905021124 | 50 | 226 | 0.0 | 0.0 | 0.00 | 0.12 | 0.00 | 92 | 1021.1 |
| 20260905020117 | 51 | 226 | 0.0 | 0.0 | 0.00 | 0.12 | 0.00 | 92 | 1021.1 |
| 20260905015123 | 51 | 226 | 0.0 | 0.0 | 0.00 | 0.12 | 0.00 | 92 | 1021.1 |
| 20260905014116 | 51 | 226 | 0.0 | 0.0 | 0.00 | 0.12 | 0.00 | 92 | 1021.0 |
| 20260905013128 | 51 | 226 | 0.0 | 0.0 | 0.00 | 0.12 | 0.00 | 91 | 1021.0 |
| 20260905012115 | 51 | 226 | 0.0 | 0.0 | 0.00 | 0.12 | 0.00 | 91 | 1021.0 |
| 20260905011127 | 52 | 226 | 0.0 | 0.0 | 0.00 | 0.12 | 0.00 | 91 | 1021.0 |
| 20260905010113 | 51 | 226 | 0.0 | 0.0 | 0.00 | 0.12 | 0.00 | 91 | 1020.9 |
| 20260905005125 | 51 | 226 | 0.0 | 0.0 | 0.00 | 0.12 | 0.00 | 90 | 1021.0 |
| 20260905004111 | 51 | 226 | 0.0 | 0.0 | 0.00 | 0.12 | 0.00 | 89 | 1020.9 |
| 20260905003124 | 52 | 226 | 0.0 | 0.0 | 0.00 | 0.12 | 0.00 | 89 | 1020.9 |
| 20260905002117 | 52 | 226 | 0.0 | 0.0 | 0.00 | 0.12 | 0.00 | 88 | 1020.9 |
| 20260905001123 | 52 | 226 | 0.0 | 0.0 | 0.00 | 0.12 | 0.00 | 87 | 1020.8 |
| 20260905000116 | 53 | 226 | 0.0 | 0.0 | 0.00 | 0.12 | 0.00 | 87 | 1020.7 |
| 20260904235122 | 53 | 226 | 0.0 | 0.0 | 0.00 | 0.12 | 0.00 | 86 | 1020.7 |
| 20260904234116 | 54 | 226 | 0.0 | 0.0 | 0.00 | 0.12 | 0.00 | 85 | 1020.7 |
| 20260904233129 | 55 | 226 | 0.0 | 0.0 | 0.00 | 0.12 | 0.00 | 84 | 1020.6 |
| 20260904232113 | 56 | 226 | 0.0 | 0.0 | 0.00 | 0.12 | 0.00 | 84 | 1020.6 |
| 20260904231125 | 56 | 226 | 0.0 | 0.0 | 0.00 | 0.12 | 0.02 | 84 | 1020.5 |
| 20260904230131 | 57 | 226 | 0.0 | 1.0 | 0.00 | 0.12 | 0.02 | 84 | 1020.4 |
| 20260904225124 | 57 | 226 | 0.0 | 0.0 | 0.00 | 0.12 | 0.02 | 85 | 1020.3 |
| 20260904224114 | 57 | 226 | 1.0 | 3.0 | 0.00 | 0.12 | 0.02 | 85 | 1020.2 |
| 20260904223126 | 56 | 226 | 0.0 | 2.0 | 0.00 | 0.12 | 0.02 | 86 | 1020.2 |
| 20260904222138 | 56 | 226 | 0.0 | 2.0 | 0.00 | 0.12 | 0.02 | 86 | 1020.1 |
| 20260904221124 | 56 | 226 | 0.0 | 1.0 | 0.00 | 0.12 | 0.02 | 86 | 1020.1 |
| 20260904220138 | 56 | 226 | 0.0 | 0.0 | 0.00 | 0.12 | 0.02 | 86 | 1019.9 |
| 20260904215152 | 56 | 226 | 0.0 | 2.0 | 0.00 | 0.12 | 0.02 | 86 | 1020.0 |
| 20260904214117 | 56 | 226 | 0.0 | 0.0 | 0.00 | 0.12 | 0.02 | 86 | 1019.9 |
| 20260904213130 | 57 | 226 | 0.0 | 1.0 | 0.00 | 0.12 | 0.02 | 86 | 1019.9 |
| 20260904212117 | 57 | 226 | 0.0 | 0.0 | 0.00 | 0.12 | 0.02 | 86 | 1019.8 |
| 20260904211129 | 57 | 226 | 0.0 | 1.0 | 0.00 | 0.12 | 0.02 | 85 | 1019.7 |
| 20260904210115 | 57 | 226 | 0.0 | 0.0 | 0.00 | 0.12 | 0.02 | 85 | 1019.8 |
| 20260904205125 | 58 | 226 | 0.0 | 0.0 | 0.00 | 0.12 | 0.02 | 84 | 1019.8 |
| 20260904204119 | 58 | 226 | 0.0 | 0.0 | 0.00 | 0.12 | 0.02 | 83 | 1019.8 |
| 20260904203134 | 58 | 226 | 0.0 | 1.0 | 0.00 | 0.12 | 0.02 | 83 | 1019.7 |
| 20260904202138 | 59 | 226 | 0.0 | 1.0 | 0.00 | 0.12 | 0.02 | 83 | 1019.6 |
| 20260904201130 | 59 | 226 | 0.0 | 1.0 | 0.00 | 0.12 | 0.02 | 83 | 1019.6 |
| 20260904200120 | 59 | 226 | 0.0 | 3.0 | 0.00 | 0.12 | 0.02 | 83 | 1019.4 |
| 20260904195135 | 59 | 226 | 0.0 | 1.0 | 0.00 | 0.12 | 0.02 | 82 | 1019.3 |
| 20260904194117 | 60 | 226 | 0.0 | 1.0 | 0.00 | 0.12 | 0.02 | 81 | 1019.2 |
| 20260904193129 | 60 | 226 | 0.0 | 3.0 | 0.00 | 0.12 | 0.02 | 80 | 1019.1 |
| 20260904192120 | 61 | 226 | 0.0 | 1.0 | 0.00 | 0.12 | 0.02 | 79 | 1019.0 |
| 20260904191126 | 61 | 226 | 0.0 | 2.0 | 0.00 | 0.12 | 0.02 | 78 | 1018.9 |
| 20260904190119 | 61 | 226 | 0.0 | 2.0 | 0.00 | 0.12 | 0.02 | 77 | 1018.8 |
| 20260904185132 | 62 | 226 | 0.0 | 5.0 | 0.00 | 0.12 | 0.02 | 76 | 1018.7 |
| 20260904184131 | 62 | 226 | 1.0 | 4.0 | 0.00 | 0.12 | 0.02 | 75 | 1018.5 |
| 20260904183121 | 62 | 226 | 1.0 | 5.0 | 0.00 | 0.12 | 0.02 | 74 | 1018.6 |
| 20260904182135 | 63 | 222 | 1.0 | 2.0 | 0.00 | 0.12 | 0.02 | 74 | 1018.5 |
| 20260904181139 | 63 | 222 | 1.0 | 5.0 | 0.00 | 0.12 | 0.02 | 73 | 1018.4 |
| 20260904180130 | 63 | 36 | 0.0 | 2.0 | 0.00 | 0.12 | 0.02 | 74 | 1018.5 |
| 20260904175113 | 63 | 221 | 0.0 | 1.0 | 0.00 | 0.12 | 0.02 | 75 | 1018.5 |
| 20260904174128 | 64 | 51 | 0.0 | 5.0 | 0.00 | 0.12 | 0.02 | 74 | 1018.1 |
| 20260904173119 | 64 | 124 | 0.0 | 4.0 | 0.00 | 0.12 | 0.02 | 74 | 1018.3 |
| 20260904172132 | 64 | 347 | 1.0 | 6.0 | 0.00 | 0.12 | 0.02 | 73 | 1018.6 |